Zurück zum Katalog

STARLINK-37867

AktivKommunikationSSO
NORAD 69661·PAYLOAD·🇺🇸 United States

Gestartet Jun 21, 2026 von Vandenberg Space Force Base

Loading…

Nächste Überflüge (nächste 24 Stunden)

TLE

AktuellSource: CelesTrak SupGP

Epoche: Sep 14, 2026, 23:28 UTC

1 69661C 26143N   26257.97826389  .00067538  00000+0  20991-2 0  2576
2 69661  97.2835 301.2057 0001095 106.5262 246.9297 15.33366652    19

Verfolge STARLINK-37867 in Echtzeit mit AllMySat

Download on the App Store